Hourly Data Report for September 03, 2017

All times are specified in Local Standard Time (LST). Add 1 hour to adjust for Daylight Saving Time where and when it is observed.

BAKER LAKE A
NUNAVUT

64°17'56.000" N
96°04'40.000" W
18.60 m
2300503
71926
YBK

Download Data

Hourly Data (September 2017)
Hourly Data Report for September 3, 2017
Temp Definition
°C
Dew Point Temp Definition
°C
Rel Hum Definition
%
Wind Dir Definition
10's deg

Wind Spd Definition
km/h
Visibility Definition
km
Stn Press Definition
kPa
Hmdx Definition


Wind Chill Definition


Weather Definition


TIME
00:00 Legend Double Dagger 5.6 1.2 73 36 37 24.1 100.20     Mainly Clear
01:00 Legend Double Dagger 4.8 1.4 79 36 35 24.1 100.19     LegendNANA
02:00 Legend Double Dagger 4.4 1.2 80 35 35 24.1 100.21     LegendNANA
03:00 Legend Double Dagger 4.0 1.3 82 35 33 24.1 100.24     Mainly Clear
04:00 Legend Double Dagger 3.5 1.0 84 35 40 24.1 100.25     LegendNANA
05:00 Legend Double Dagger 3.4 0.9 84 36 45 32.2 100.26     LegendNANA
06:00 Legend Double Dagger 3.5 0.8 82 36 40 32.2 100.28     Mainly Clear
07:00 Legend Double Dagger 4.0 0.3 77 36 46 32.2 100.31     LegendNANA
08:00 Legend Double Dagger 5.3 0.8 73 35 37 32.2 100.30     LegendNANA
09:00 Legend Double Dagger 6.0 0.5 68 36 43 32.2 100.29     Mostly Cloudy
10:00 Legend Double Dagger 7.2 0.8 63 36 41 32.2 100.31     LegendNANA
11:00 Legend Double Dagger 8.4 1.2 60 36 42 32.2 100.31     LegendNANA
12:00 Legend Double Dagger 9.4 1.5 58 36 47 32.2 100.30     Mostly Cloudy
13:00 Legend Double Dagger 10.8 1.4 52 36 47 32.2 100.34     LegendNANA
14:00 Legend Double Dagger 11.3 1.2 50 36 43 32.2 100.40     LegendNANA
15:00 Legend Double Dagger 11.3 1.0 49 36 41 32.2 100.45     Mainly Clear
16:00 Legend Double Dagger 12.7 1.1 45 2 41 32.2 100.51     LegendNANA
17:00 Legend Double Dagger 12.1 0.7 45 1 31 32.2 100.57     LegendNANA
18:00 Legend Double Dagger 12.0 1.2 47 1 22 32.2 100.63     Mainly Clear
19:00 Legend Double Dagger 9.1 1.6 59 34 17 32.2 100.70     LegendNANA
20:00 Legend Double Dagger 7.1 2.1 70 33 22 32.2 100.73     LegendNANA
21:00 Legend Double Dagger 6.7 2.3 74 34 21 24.1 100.79     Clear
22:00 Legend Double Dagger 6.3 2.8 78 35 25 24.1 100.84     LegendNANA
23:00 Legend Double Dagger 6.0 2.8 80 34 24 32.2 100.90     LegendNANA

Notes on Data Quality.

Legend

  • E = Estimated
  • M = Missing
  • NA = Not Available
  • ‡ = Partner data that is not subject to review by the National Climate Archives
Date modified: